| time (UTC) | temp F | wind direction | speed knots | gust knots | rain 1hr in | rain 24hr in | rain mn in | humidity % | barometer mb |
| 20260505090644 | 63 | 180 | 3.5 | 4.3 | 0.00 | 0.00 | 0.00 | 46 | 1021.1 |
| 20260505090143 | 63 | 90 | 2.6 | 3.5 | 0.00 | 0.00 | 0.00 | 45 | 1021.1 |
| 20260505085640 | 63 | 180 | 7.0 | 9.6 | 0.00 | 0.00 | 0.00 | 45 | 1020.8 |
| 20260505085138 | 64 | 135 | 6.1 | 8.7 | 0.00 | 0.00 | 0.00 | 45 | 1020.5 |
| 20260505084635 | 64 | 135 | 3.5 | 6.1 | 0.00 | 0.00 | 0.00 | 44 | 1021.1 |
| 20260505084133 | 64 | 180 | 3.5 | 4.3 | 0.00 | 0.00 | 0.00 | 44 | 1020.8 |
| 20260505083631 | 65 | 135 | 7.8 | 9.6 | 0.00 | 0.00 | 0.00 | 43 | 1020.8 |
| 20260505083127 | 65 | 270 | 3.5 | 4.3 | 0.00 | 0.00 | 0.00 | 43 | 1020.5 |
| 20260505082623 | 65 | 135 | 4.3 | 8.7 | 0.00 | 0.00 | 0.00 | 42 | 1020.8 |
| 20260505082120 | 65 | 135 | 5.2 | 8.7 | 0.00 | 0.00 | 0.00 | 41 | 1020.8 |
| 20260505081616 | 65 | 135 | 2.6 | 4.3 | 0.00 | 0.00 | 0.00 | 41 | 1020.5 |
| 20260505081114 | 66 | 180 | 4.3 | 8.7 | 0.00 | 0.00 | 0.00 | 40 | 1020.5 |
| 20260505080610 | 66 | 180 | 7.0 | 8.7 | 0.00 | 0.00 | 0.00 | 39 | 1020.5 |
| 20260505080106 | 66 | 45 | 3.5 | 6.1 | 0.00 | 0.00 | 0.00 | 38 | 1020.5 |
| 20260505075602 | 66 | 180 | 2.6 | 5.2 | 0.00 | 0.00 | 0.00 | 38 | 1020.5 |
| 20260505075059 | 66 | 180 | 4.3 | 5.2 | 0.00 | 0.00 | 0.00 | 36 | 1020.5 |
| 20260505074556 | 67 | 180 | 2.6 | 4.3 | 0.00 | 0.00 | 0.00 | 36 | 1020.8 |
| 20260505074053 | 67 | 90 | 6.1 | 7.8 | 0.00 | 0.00 | 0.00 | 36 | 1020.5 |
| 20260505073551 | 67 | 180 | 6.1 | 8.7 | 0.00 | 0.00 | 0.00 | 35 | 1020.5 |
| 20260505073049 | 67 | 180 | 6.1 | 11.3 | 0.00 | 0.00 | 0.00 | 36 | 1020.5 |
| 20260505072549 | 67 | 135 | 6.1 | 8.7 | 0.00 | 0.00 | 0.00 | 36 | 1020.8 |
| 20260505072047 | 68 | 135 | 6.1 | 7.8 | 0.00 | 0.00 | 0.00 | 35 | 1020.5 |
| 20260505071542 | 68 | 135 | 3.5 | 4.3 | 0.00 | 0.00 | 0.00 | 35 | 1020.5 |
| 20260505071040 | 68 | 135 | 9.6 | 11.3 | 0.00 | 0.00 | 0.00 | 34 | 1020.5 |
| 20260505070537 | 68 | 180 | 6.1 | 7.8 | 0.00 | 0.00 | 0.00 | 33 | 1020.5 |
| 20260505070033 | 69 | 135 | 1.7 | 4.3 | 0.00 | 0.00 | 0.00 | 33 | 1020.1 |
| 20260505065529 | 69 | 135 | 5.2 | 8.7 | 0.00 | 0.00 | 0.00 | 32 | 1020.1 |
| 20260505065026 | 69 | 180 | 6.1 | 8.7 | 0.00 | 0.00 | 0.00 | 32 | 1020.1 |
| 20260505064523 | 69 | 180 | 7.0 | 8.7 | 0.00 | 0.00 | 0.00 | 31 | 1020.1 |
| 20260505064021 | 69 | 225 | 7.8 | 9.6 | 0.00 | 0.00 | 0.00 | 30 | 1019.8 |
| 20260505063518 | 70 | 135 | 6.1 | 10.4 | 0.00 | 0.00 | 0.00 | 29 | 1020.1 |
| 20260505063014 | 70 | 180 | 4.3 | 5.2 | 0.00 | 0.00 | 0.00 | 28 | 1019.8 |
| 20260505062511 | 70 | 135 | 8.7 | 14.8 | 0.00 | 0.00 | 0.00 | 28 | 1019.8 |
| 20260505062008 | 71 | 135 | 4.3 | 7.8 | 0.00 | 0.00 | 0.00 | 27 | 1019.8 |
| 20260505061506 | 71 | 180 | 3.5 | 4.3 | 0.00 | 0.00 | 0.00 | 27 | 1019.8 |
| 20260505061003 | 71 | 180 | 7.8 | 11.3 | 0.00 | 0.00 | 0.00 | 27 | 1019.8 |
| 20260505060501 | 71 | 270 | 7.8 | 13.0 | 0.00 | 0.00 | 0.00 | 26 | 1019.8 |
| 20260505055956 | 71 | 90 | 3.5 | 4.3 | 0.00 | 0.00 | 0.00 | 25 | 1020.1 |
| 20260505055452 | 71 | 180 | 4.3 | 7.0 | 0.00 | 0.00 | 0.00 | 24 | 1019.8 |
| 20260505054949 | 72 | 180 | 5.2 | 7.8 | 0.00 | 0.00 | 0.00 | 24 | 1019.8 |
| 20260505054447 | 72 | 180 | 5.2 | 7.8 | 0.00 | 0.00 | 0.00 | 25 | 1019.5 |
| 20260505053945 | 72 | 135 | 4.3 | 5.2 | 0.00 | 0.00 | 0.00 | 24 | 1019.8 |
| 20260505053442 | 72 | 180 | 10.4 | 11.3 | 0.00 | 0.00 | 0.00 | 23 | 1019.5 |
| 20260505052938 | 73 | 45 | 5.2 | 8.7 | 0.00 | 0.00 | 0.00 | 23 | 1019.8 |
| 20260505052435 | 73 | 180 | 6.1 | 8.7 | 0.00 | 0.00 | 0.00 | 22 | 1019.5 |
| 20260505051932 | 73 | 225 | 4.3 | 6.1 | 0.00 | 0.00 | 0.00 | 21 | 1019.5 |
| 20260505051429 | 73 | 180 | 7.8 | 11.3 | 0.00 | 0.00 | 0.00 | 21 | 1019.5 |
| 20260505050928 | 73 | 180 | 5.2 | 7.0 | 0.00 | 0.00 | 0.00 | 19 | 1019.8 |
| 20260505050426 | 73 | 180 | 2.6 | 4.3 | 0.00 | 0.00 | 0.00 | 17 | 1019.8 |
| 20260505041353 | 74 | 135 | 2.6 | 3.5 | 0.00 | 0.00 | 0.00 | 12 | 1020.1 |
| 20260505040850 | 74 | 270 | 3.5 | 4.3 | 0.00 | 0.00 | 0.00 | 12 | 1020.1 |
| 20260505040348 | 73 | 45 | 8.7 | 10.4 | 0.00 | 0.00 | 0.00 | 12 | 1020.1 |
| 20260505035844 | 72 | 45 | 6.1 | 7.0 | 0.00 | 0.00 | 0.00 | 12 | 1020.1 |
| 20260505035340 | 71 | 135 | 0.9 | 1.7 | 0.00 | 0.00 | 0.00 | 12 | 1020.1 |
| 20260505034838 | 71 | 45 | 6.1 | 7.8 | 0.00 | 0.00 | 0.00 | 12 | 1020.1 |
| 20260505034334 | 71 | 45 | 5.2 | 6.1 | 0.00 | 0.00 | 0.00 | 16 | 1020.1 |
| 20260505033831 | 71 | 270 | 1.7 | 2.6 | 0.00 | 0.00 | 0.00 | 13 | 1020.1 |
| 20260505033328 | 70 | 0 | 4.3 | 6.1 | 0.00 | 0.00 | 0.00 | 13 | 1020.5 |
| 20260505032826 | 70 | 0 | 5.2 | 7.0 | 0.00 | 0.00 | 0.00 | 13 | 1020.5 |
| 20260505032322 | 70 | 45 | 2.6 | 4.3 | 0.00 | 0.00 | 0.00 | 13 | 1020.5 |
| 20260505031820 | 70 | 45 | 8.7 | 11.3 | 0.00 | 0.00 | 0.00 | 13 | 1020.1 |
| 20260505031316 | 70 | 45 | 1.7 | 2.6 | 0.00 | 0.00 | 0.00 | 16 | 1020.5 |
| 20260505030813 | 70 | 45 | 2.6 | 4.3 | 0.00 | 0.00 | 0.00 | 18 | 1020.1 |
| 20260505030310 | 69 | 90 | 1.7 | 2.6 | 0.00 | 0.00 | 0.00 | 16 | 1019.8 |
| 20260505025805 | 69 | 45 | 7.0 | 8.7 | 0.00 | 0.00 | 0.00 | 18 | 1020.5 |
| 20260505025304 | 69 | 90 | 1.7 | 2.6 | 0.00 | 0.00 | 0.00 | 18 | 1020.1 |
| 20260505024801 | 69 | 90 | 2.6 | 3.5 | 0.00 | 0.00 | 0.00 | 18 | 1020.1 |
| 20260505024258 | 69 | 90 | 4.3 | 6.1 | 0.00 | 0.00 | 0.00 | 19 | 1020.1 |
| 20260505023755 | 69 | 225 | 0.9 | 1.7 | 0.00 | 0.00 | 0.00 | 18 | 1020.1 |
| 20260505023252 | 69 | 270 | 1.7 | 3.5 | 0.00 | 0.00 | 0.00 | 18 | 1020.1 |
| 20260505022749 | 69 | 45 | 2.6 | 2.6 | 0.00 | 0.00 | 0.00 | 19 | 1020.5 |
| 20260505022246 | 69 | 45 | 2.6 | 4.3 | 0.00 | 0.00 | 0.00 | 19 | 1020.5 |
| 20260505021743 | 69 | 45 | 7.8 | 8.7 | 0.00 | 0.00 | 0.00 | 20 | 1020.5 |
| 20260505021240 | 69 | 90 | 0.9 | 1.7 | 0.00 | 0.00 | 0.00 | 22 | 1020.5 |
| 20260505020736 | 68 | 0 | 1.7 | 2.6 | 0.00 | 0.00 | 0.00 | 22 | 1020.5 |
| 20260505020231 | 68 | 0 | 0.9 | 1.7 | 0.00 | 0.00 | 0.00 | 20 | 1020.5 |
| 20260505015729 | 68 | 45 | 0.9 | 0.9 | 0.00 | 0.00 | 0.00 | 20 | 1020.1 |
| 20260505015226 | 68 | 180 | 4.3 | 6.1 | 0.00 | 0.00 | 0.00 | 20 | 1020.5 |
| 20260505014723 | 68 | 0 | 4.3 | 6.1 | 0.00 | 0.00 | 0.00 | 20 | 1020.1 |
| 20260505014220 | 67 | 45 | 5.2 | 6.1 | 0.00 | 0.00 | 0.00 | 20 | 1020.1 |
| 20260505013717 | 68 | 45 | 5.2 | 6.1 | 0.00 | 0.00 | 0.00 | 20 | 1020.1 |
| 20260505013214 | 67 | 180 | 4.3 | 8.7 | 0.00 | 0.00 | 0.00 | 20 | 1020.5 |
| 20260505012712 | 67 | 45 | 3.5 | 6.1 | 0.00 | 0.00 | 0.00 | 21 | 1020.1 |
| 20260505012209 | 67 | 90 | 7.0 | 9.6 | 0.00 | 0.00 | 0.00 | 23 | 1020.1 |
| 20260505011704 | 67 | 135 | 7.0 | 8.7 | 0.00 | 0.00 | 0.00 | 21 | 1020.1 |
| 20260505011202 | 67 | 90 | 2.6 | 4.3 | 0.00 | 0.00 | 0.00 | 21 | 1020.1 |
| 20260505010657 | 67 | 45 | 9.6 | 11.3 | 0.00 | 0.00 | 0.00 | 21 | 1020.1 |
| 20260505010154 | 67 | 0 | 3.5 | 4.3 | 0.00 | 0.00 | 0.00 | 21 | 1020.1 |
| 20260505005650 | 66 | 45 | 3.5 | 4.3 | 0.00 | 0.00 | 0.00 | 21 | 1020.5 |
| 20260505005147 | 66 | 45 | 7.8 | 8.7 | 0.00 | 0.00 | 0.00 | 24 | 1020.1 |
| 20260505004644 | 66 | 45 | 3.5 | 4.3 | 0.00 | 0.00 | 0.00 | 24 | 1020.1 |
| 20260505004141 | 66 | 0 | 4.3 | 7.0 | 0.00 | 0.00 | 0.00 | 24 | 1019.8 |
| 20260505003638 | 66 | 45 | 4.3 | 5.2 | 0.00 | 0.00 | 0.00 | 24 | 1020.1 |
| 20260505003136 | 66 | 45 | 5.2 | 6.1 | 0.00 | 0.00 | 0.00 | 25 | 1019.8 |
| 20260505002631 | 66 | 90 | 1.7 | 3.5 | 0.00 | 0.00 | 0.00 | 25 | 1020.1 |
| 20260505002130 | 66 | 45 | 7.8 | 9.6 | 0.00 | 0.00 | 0.00 | 25 | 1020.1 |
| 20260505001626 | 65 | 270 | 5.2 | 8.7 | 0.00 | 0.00 | 0.00 | 25 | 1019.8 |
| 20260505001124 | 65 | 225 | 5.2 | 7.0 | 0.00 | 0.00 | 0.00 | 25 | 1019.8 |
| 20260505000621 | 65 | 0 | 2.6 | 3.5 | 0.00 | 0.00 | 0.00 | 25 | 1019.8 |
| 20260505000119 | 65 | 270 | 4.3 | 5.2 | 0.00 | 0.00 | 0.00 | 25 | 1020.1 |
| 20260504235615 | 65 | 315 | 2.6 | 4.3 | 0.00 | 0.00 | 0.00 | 25 | 1020.1 |
| 20260504235112 | 65 | 45 | 4.3 | 4.3 | 0.00 | 0.00 | 0.00 | 25 | 1019.8 |
| 20260504234609 | 65 | 0 | 2.6 | 3.5 | 0.00 | 0.00 | 0.00 | 25 | 1020.1 |
| 20260504234106 | 65 | 0 | 5.2 | 6.1 | 0.00 | 0.00 | 0.00 | 25 | 1020.1 |
| 20260504233601 | 65 | 0 | 7.0 | 9.6 | 0.00 | 0.00 | 0.00 | 25 | 1020.5 |
| 20260504233058 | 65 | 270 | 2.6 | 3.5 | 0.00 | 0.00 | 0.00 | 25 | 1020.1 |
| 20260504232555 | 65 | 45 | 5.2 | 7.0 | 0.00 | 0.00 | 0.00 | 25 | 1020.5 |
| 20260504232053 | 65 | 0 | 5.2 | 7.0 | 0.00 | 0.00 | 0.00 | 25 | 1020.5 |
| 20260504231549 | 65 | 315 | 6.1 | 6.1 | 0.00 | 0.00 | 0.00 | 25 | 1020.5 |
| 20260504231045 | 66 | 270 | 1.7 | 2.6 | 0.00 | 0.00 | 0.00 | 24 | 1020.5 |
| 20260504230541 | 67 | 0 | 6.1 | 11.3 | 0.00 | 0.00 | 0.00 | 23 | 1020.5 |
| 20260504230041 | 68 | 315 | 5.2 | 6.1 | 0.00 | 0.00 | 0.00 | 24 | 1020.5 |
| 20260504225537 | 69 | 45 | 4.3 | 5.2 | 0.00 | 0.00 | 0.00 | 24 | 1020.5 |
| 20260504225035 | 70 | 0 | 7.0 | 7.0 | 0.00 | 0.00 | 0.00 | 24 | 1020.1 |
| 20260504224531 | 70 | 270 | 7.0 | 7.0 | 0.00 | 0.00 | 0.00 | 25 | 1020.1 |
| 20260504224028 | 70 | 0 | 2.6 | 3.5 | 0.00 | 0.00 | 0.00 | 26 | 1020.1 |
| 20260504223525 | 70 | 0 | 6.1 | 10.4 | 0.00 | 0.00 | 0.00 | 28 | 1020.1 |
| 20260504223021 | 69 | 0 | 6.1 | 7.8 | 0.00 | 0.00 | 0.00 | 29 | 1020.1 |
| 20260504222518 | 68 | 0 | 6.1 | 7.0 | 0.00 | 0.00 | 0.00 | 30 | 1020.1 |
| 20260504222015 | 68 | 270 | 4.3 | 6.1 | 0.00 | 0.00 | 0.00 | 30 | 1020.1 |
| 20260504221513 | 67 | 0 | 5.2 | 6.1 | 0.00 | 0.00 | 0.00 | 32 | 1020.1 |
| 20260504221009 | 66 | 0 | 2.6 | 3.5 | 0.00 | 0.00 | 0.00 | 34 | 1020.1 |
| 20260504220506 | 65 | 315 | 3.5 | 3.5 | 0.00 | 0.00 | 0.00 | 35 | 1020.1 |
| 20260504220003 | 63 | 315 | 3.5 | 3.5 | 0.00 | 0.00 | 0.00 | 36 | 1019.8 |
| 20260504215459 | 62 | 270 | 4.3 | 6.1 | 0.00 | 0.00 | 0.00 | 37 | 1019.8 |
| 20260504214956 | 60 | 180 | 3.5 | 4.3 | 0.00 | 0.00 | 0.00 | 36 | 1019.8 |
| 20260504214452 | 60 | 315 | 3.5 | 4.3 | 0.00 | 0.00 | 0.00 | 36 | 1019.8 |
| 20260504213949 | 60 | 0 | 4.3 | 6.1 | 0.00 | 0.00 | 0.00 | 36 | 1019.8 |
| 20260504213445 | 59 | 270 | 4.3 | 5.2 | 0.00 | 0.00 | 0.00 | 36 | 1019.8 |
| 20260504212943 | 59 | 270 | 8.7 | 10.4 | 0.00 | 0.00 | 0.00 | 36 | 1019.5 |
| 20260504212438 | 59 | 315 | 4.3 | 6.1 | 0.00 | 0.00 | 0.00 | 38 | 1019.5 |
| 20260504211936 | 59 | 270 | 3.5 | 6.1 | 0.00 | 0.00 | 0.00 | 39 | 1019.5 |
| 20260504211432 | 58 | 270 | 4.3 | 6.1 | 0.00 | 0.00 | 0.00 | 39 | 1019.1 |
| 20260504210930 | 58 | 0 | 2.6 | 4.3 | 0.00 | 0.00 | 0.00 | 39 | 1019.1 |
| 20260504210427 | 57 | 270 | 2.6 | 2.6 | 0.00 | 0.00 | 0.00 | 39 | 1019.1 |
| 20260504205924 | 57 | 45 | 2.6 | 4.3 | 0.00 | 0.00 | 0.00 | 39 | 1019.1 |
| 20260504205421 | 57 | 315 | 2.6 | 4.3 | 0.00 | 0.00 | 0.00 | 40 | 1018.8 |
| 20260504204919 | 56 | 0 | 2.6 | 4.3 | 0.00 | 0.00 | 0.00 | 40 | 1018.8 |
| 20260504204418 | 56 | 0 | 2.6 | 3.5 | 0.00 | 0.00 | 0.00 | 40 | 1018.8 |
| 20260504203917 | 56 | 0 | 4.3 | 5.2 | 0.00 | 0.00 | 0.00 | 39 | 1018.4 |
| 20260504203414 | 56 | 0 | 1.7 | 3.5 | 0.00 | 0.00 | 0.00 | 39 | 1018.4 |
| 20260504202909 | 56 | 270 | 1.7 | 3.5 | 0.00 | 0.00 | 0.00 | 39 | 1018.0 |
| 20260504202406 | 55 | 315 | 3.5 | 5.2 | 0.00 | 0.00 | 0.00 | 40 | 1018.0 |
| 20260504201903 | 55 | 270 | 6.1 | 7.8 | 0.00 | 0.00 | 0.00 | 40 | 1017.7 |
| 20260504201401 | 55 | 270 | 1.7 | 2.6 | 0.00 | 0.00 | 0.00 | 40 | 1017.7 |
| 20260504200857 | 54 | 270 | 4.3 | 6.1 | 0.00 | 0.00 | 0.00 | 40 | 1017.7 |
| 20260504200354 | 54 | 0 | 2.6 | 4.3 | 0.00 | 0.00 | 0.00 | 41 | 1017.3 |
| 20260504195851 | 55 | 0 | 2.6 | 3.5 | 0.00 | 0.00 | 0.00 | 41 | 1017.3 |
| 20260504195346 | 55 | 315 | 5.2 | 6.1 | 0.00 | 0.00 | 0.00 | 40 | 1017.3 |
| 20260504194843 | 55 | 270 | 7.0 | 7.8 | 0.00 | 0.00 | 0.00 | 40 | 1017.3 |
| 20260504194339 | 55 | 270 | 6.1 | 7.0 | 0.00 | 0.00 | 0.00 | 40 | 1017.0 |
| 20260504193835 | 55 | 0 | 4.3 | 10.4 | 0.00 | 0.00 | 0.00 | 40 | 1017.0 |
| 20260504193333 | 56 | 270 | 2.6 | 6.1 | 0.00 | 0.00 | 0.00 | 39 | 1017.0 |
| 20260504192831 | 56 | 270 | 2.6 | 4.3 | 0.00 | 0.00 | 0.00 | 39 | 1016.6 |
| 20260504192329 | 56 | 315 | 4.3 | 6.1 | 0.00 | 0.00 | 0.00 | 39 | 1016.6 |
| 20260504191827 | 56 | 315 | 9.6 | 12.2 | 0.00 | 0.00 | 0.00 | 39 | 1016.6 |
| 20260504191324 | 56 | 270 | 7.0 | 15.6 | 0.00 | 0.00 | 0.00 | 39 | 1016.3 |
| 20260504190820 | 56 | 0 | 4.3 | 10.4 | 0.00 | 0.00 | 0.00 | 39 | 1016.3 |
| 20260504190316 | 56 | 0 | 6.1 | 11.3 | 0.00 | 0.00 | 0.00 | 39 | 1016.0 |
| 20260504185813 | 56 | 270 | 6.1 | 13.0 | 0.00 | 0.00 | 0.00 | 40 | 1016.0 |
| 20260504185310 | 56 | 270 | 8.7 | 11.3 | 0.00 | 0.00 | 0.00 | 40 | 1015.6 |
| 20260504184806 | 56 | 0 | 9.6 | 11.3 | 0.00 | 0.00 | 0.00 | 40 | 1015.6 |
| 20260504184302 | 56 | 0 | 6.1 | 7.0 | 0.00 | 0.00 | 0.00 | 40 | 1015.6 |
| 20260504183758 | 56 | 270 | 11.3 | 13.0 | 0.00 | 0.00 | 0.00 | 41 | 1015.6 |
| 20260504183255 | 56 | 270 | 4.3 | 6.1 | 0.00 | 0.00 | 0.00 | 41 | 1015.6 |
| 20260504182753 | 56 | 270 | 7.0 | 11.3 | 0.00 | 0.00 | 0.00 | 42 | 1014.9 |
| 20260504182250 | 56 | 0 | 7.8 | 12.2 | 0.00 | 0.00 | 0.00 | 42 | 1014.9 |
| 20260504181747 | 56 | 0 | 10.4 | 16.5 | 0.00 | 0.00 | 0.00 | 43 | 1014.9 |
| 20260504181244 | 56 | 0 | 7.0 | 8.7 | 0.00 | 0.00 | 0.00 | 43 | 1014.9 |
| 20260504180743 | 56 | 270 | 2.6 | 5.2 | 0.00 | 0.00 | 0.00 | 44 | 1014.6 |
| 20260504180242 | 56 | 0 | 7.8 | 11.3 | 0.00 | 0.00 | 0.00 | 44 | 1014.6 |
| 20260504175739 | 56 | 0 | 4.3 | 9.6 | 0.00 | 0.00 | 0.00 | 44 | 1014.3 |
| 20260504175235 | 56 | 0 | 7.8 | 10.4 | 0.00 | 0.00 | 0.00 | 45 | 1014.3 |
| 20260504174734 | 56 | 0 | 7.0 | 8.7 | 0.00 | 0.00 | 0.00 | 46 | 1014.3 |
| 20260504174231 | 56 | 270 | 4.3 | 6.1 | 0.00 | 0.00 | 0.00 | 46 | 1013.9 |
| 20260504173727 | 56 | 0 | 7.8 | 9.6 | 0.00 | 0.00 | 0.00 | 46 | 1013.6 |
| 20260504173224 | 56 | 0 | 9.6 | 13.9 | 0.00 | 0.00 | 0.00 | 46 | 1013.6 |
| 20260504172721 | 56 | 0 | 6.1 | 8.7 | 0.00 | 0.00 | 0.00 | 46 | 1013.3 |
| 20260504172217 | 55 | 0 | 6.1 | 11.3 | 0.00 | 0.00 | 0.00 | 47 | 1013.3 |
| 20260504171714 | 55 | 0 | 9.6 | 11.3 | 0.00 | 0.00 | 0.00 | 47 | 1013.3 |
| 20260504171211 | 55 | 0 | 7.8 | 9.6 | 0.00 | 0.00 | 0.00 | 47 | 1013.3 |
| 20260504170708 | 55 | 0 | 13.9 | 17.4 | 0.00 | 0.00 | 0.00 | 47 | 1012.9 |
| 20260504170206 | 55 | 0 | 8.7 | 13.0 | 0.00 | 0.00 | 0.00 | 48 | 1012.9 |
| 20260504160124 | 56 | 0 | 5.2 | 8.7 | 0.00 | 0.00 | 0.00 | 47 | 1011.2 |
| 20260504151051 | 59 | 45 | 4.3 | 6.1 | 0.00 | 0.00 | 0.00 | 48 | 1010.4 |
| 20260504150548 | 59 | 270 | 2.6 | 3.5 | 0.00 | 0.00 | 0.00 | 48 | 1010.1 |
| 20260504141014 | 59 | 0 | 4.3 | 6.1 | 0.00 | 0.21 | 0.21 | 47 | 1008.8 |
| 20260504140511 | 59 | 0 | 4.3 | 5.2 | 0.00 | 0.21 | 0.21 | 47 | 1008.8 |
| 20260504130436 | 61 | 0 | 6.1 | 7.8 | 0.00 | 0.21 | 0.21 | 46 | 1007.1 |
| 20260504110322 | 68 | 270 | 2.6 | 5.2 | 0.00 | 0.21 | 0.21 | 39 | 1002.6 |
| 20260504100240 | 73 | 45 | 7.0 | 8.7 | 0.00 | 0.21 | 0.21 | 37 | 1000.5 |